Weather History for Roseburg, OR

Change the Weather History Date:

Friday, March 8, 2013

  Actual Average Record
Temperature  
Mean Temperature 42 °F 48 °F  
Max Temperature 51 °F 57 °F 79 °F (1953)
Min Temperature 32 °F 39 °F 25 °F (1974)
Degree Days  
Heating Degree Days 23 17  
Month to date heating degree days 143 141  
Since 1 July heating degree days 2853 3010  
Cooling Degree Days 0 0  
Month to date cooling degree days 0 0  
Year to date cooling degree days 0 0  
Moisture  
Dew Point 35 °F    
Average Humidity 80    
Maximum Humidity 100    
Minimum Humidity 59    
Precipitation  
Precipitation 0.00 in 0.10 in 0.95 in (1960)
Month to date precipitation 0.90 0.79  
Year to date precipitation 4.05 9.83  
Sea Level Pressure  
Sea Level Pressure 30.07 in    
Wind  
Wind Speed 2 mph (North)    
Max Wind Speed 10 mph    
Max Gust Speed 29 mph    
Visibility 7 miles    
Events Fog    
T = Trace of Precipitation, MM = Missing Value Source: NWS Daily Summary

Daily Weather History Graph

Daily Weather History Graph

Search for Another Location

Airport:

Trip Planner

Search our weather history database for the weather conditions in past years. The results will help you decide how hot, cold, wet, or windy it might be!

Date:

Astronomy

Mar. 08, 2013 Rise Set
Actual Time 6:37 AM PST 6:11 PM PST
Civil Twilight 6:08 AM PST 6:40 PM PST
Nautical Twilight 5:35 AM PST 7:13 PM PST
Astronomical Twilight 5:02 AM PST 7:46 PM PST
Moon 4:29 AM PST (3/8) 3:09 PM PST (3/8)
Length of Visible Light 12h 31m
Length of Day
11h 34m
Waning Crescent, 11% of the Moon is Illuminated
Mar 8
Waning Crescent
Mar 11
New
Mar 19
First Quarter
Mar 27
Full
Apr 2
Last Quarter

Hourly Weather History & Observations

Time (PST) Temp. Windchill Dew Point Humidity Pressure Visibility Wind Dir Wind Speed Gust Speed Precip Events Conditions
12:53 AM 35.1 °F - 33.1 °F 92% 30.03 in 10.0 mi Calm Calm - N/A   Clear
1:53 AM 34.0 °F - 32.0 °F 92% 30.04 in 10.0 mi Calm Calm - N/A   Clear
2:53 AM 33.1 °F - 30.9 °F 92% 30.03 in 10.0 mi Calm Calm - N/A   Clear
3:06 AM 33.8 °F - 30.2 °F 87% 30.02 in 10.0 mi Calm Calm - N/A   Scattered Clouds
3:14 AM 33.8 °F - 30.2 °F 87% 30.02 in 10.0 mi Calm Calm - N/A   Mostly Cloudy
3:53 AM 34.0 °F - 33.1 °F 96% 30.03 in 8.0 mi Calm Calm - N/A   Overcast
4:31 AM 33.8 °F 30.8 °F 33.8 °F 100% 30.03 in 1.8 mi South 3.5 mph - N/A   Overcast
4:53 AM 34.0 °F 31.0 °F 34.0 °F 100% 30.04 in 2.5 mi SSE 3.5 mph - N/A   Overcast
5:09 AM 33.8 °F - 33.8 °F 100% 30.03 in 4.0 mi Calm Calm - N/A   Overcast
5:26 AM 35.6 °F - 35.6 °F 100% 30.03 in 1.8 mi Calm Calm - N/A   Overcast
5:44 AM 35.6 °F - 33.8 °F 93% 30.04 in 2.5 mi Calm Calm - N/A   Overcast
5:53 AM 35.1 °F - 35.1 °F 100% 30.05 in 3.0 mi Calm Calm - N/A   Overcast
6:15 AM 35.6 °F - 35.6 °F 100% 30.04 in 1.8 mi Calm Calm - N/A   Overcast
6:26 AM 35.6 °F - 35.6 °F 100% 30.05 in 0.5 mi Calm Calm - N/A Fog Fog
6:37 AM 35.6 °F - 35.6 °F 100% 30.05 in 0.2 mi Calm Calm - N/A Fog Fog
6:46 AM 35.6 °F - 35.6 °F 100% 30.05 in 0.5 mi Calm Calm - N/A Fog Fog
6:53 AM 35.1 °F - 35.1 °F 100% 30.06 in 0.8 mi Calm Calm - N/A   Mist
7:30 AM 35.6 °F 31.7 °F 35.6 °F 100% 30.06 in 1.8 mi North 4.6 mph - N/A   Overcast
7:43 AM 35.6 °F 30.7 °F 35.6 °F 100% 30.06 in 0.8 mi North 5.8 mph - N/A   Overcast
7:53 AM 35.1 °F 32.2 °F 35.1 °F 100% 30.07 in 1.0 mi North 3.5 mph - N/A   Overcast
8:37 AM 35.6 °F - 35.6 °F 100% 30.06 in 2.5 mi Calm Calm - N/A   Overcast
8:53 AM 37.0 °F - 36.0 °F 96% 30.08 in 4.0 mi Calm Calm - N/A   Overcast
9:45 AM 37.4 °F - 35.6 °F 93% 30.07 in 10.0 mi Calm Calm - N/A   Overcast
9:53 AM 37.0 °F - 36.0 °F 96% 30.09 in 10.0 mi Calm Calm - N/A   Overcast
10:25 AM - - - N/A% 30.08 in - North - - N/A   Unknown
10:53 AM - - - N/A% 30.07 in - North - - N/A   Unknown
11:53 AM - - - N/A% 30.07 in - North - - N/A   Unknown
12:13 PM 42.8 °F 41.1 °F 35.6 °F 76% 30.07 in 10.0 mi Variable 3.5 mph - N/A   Overcast
12:43 PM 42.8 °F - 35.6 °F 76% 30.07 in 10.0 mi Calm Calm - N/A   Overcast
12:53 PM 44.1 °F - 37.0 °F 76% 30.08 in 10.0 mi Calm Calm - N/A   Overcast
1:33 PM 46.4 °F 41.9 °F 37.4 °F 71% 30.05 in - North 9.2 mph - N/A   Unknown
1:53 PM 46.9 °F - 37.0 °F 68% 30.06 in 10.0 mi North 9.2 mph - N/A   Unknown
2:30 PM 48.2 °F - 37.4 °F 66% 30.05 in 10.0 mi Variable 5.8 mph - N/A   Mostly Cloudy
2:38 PM 48.2 °F - 37.4 °F 66% 30.05 in 10.0 mi North 4.6 mph - N/A   Scattered Clouds
2:53 PM 48.0 °F - 37.9 °F 68% 30.06 in 10.0 mi North 6.9 mph - N/A   Scattered Clouds
3:53 PM 48.9 °F - 37.9 °F 66% 30.06 in 10.0 mi NW 5.8 mph - N/A   Clear
4:53 PM 51.1 °F - 37.9 °F 61% 30.07 in 10.0 mi North 6.9 mph - N/A   Clear
5:53 PM 50.0 °F - 39.0 °F 66% 30.09 in 10.0 mi Calm Calm - N/A   Clear
6:53 PM 46.0 °F - 39.0 °F 76% 30.12 in 10.0 mi Calm Calm - N/A   Clear
7:53 PM 43.0 °F - 37.0 °F 80% 30.14 in 10.0 mi Calm Calm - N/A   Clear
8:53 PM 41.0 °F - 37.0 °F 86% 30.17 in 10.0 mi Calm Calm - N/A   Clear
9:53 PM 39.0 °F 36.8 °F 36.0 °F 89% 30.20 in 10.0 mi North 3.5 mph - N/A   Clear
10:53 PM 37.9 °F - 35.1 °F 89% 30.20 in 10.0 mi Calm Calm - N/A   Clear
11:53 PM 36.0 °F - 34.0 °F 93% 30.22 in 8.0 mi Calm Calm - N/A   Clear